User: anonymous   Login
Location: Brno
(49.2000°N, 16.6330°E)
Time: 12:16:17
(UTC+02:00)
Language:

Iridium 2 - Orbit

View from above orbital plane
View from above orbital plane
View from above satellite
View from above satellite

Ground track
Ground track

The orbit data is extracted from the following two-line orbital elements,

1 25527U 98066A   15148.51128395  .00003020  00000-0  17158-3 0  9993
2 25527 085.5313 114.1805 0008896 337.5303 134.5989 15.12472995904235
Epoch (UTC): 28 May 2015 12:16:14
Eccentricity: 0.0008896
inclination: 85.5313°
perigee height: 522 km
apogee height: 535 km
right ascension of ascending node: 114.1805°
argument of perigee: 337.5303°
revolutions per day: 15.12472995
mean anomaly at epoch: 134.5989°
orbit number at epoch: 90423

The dashed part of the orbit path shows where the satellite is in the earth's shadow,  

DLR